Weather History for KDLH - February, 2013

Change the Weather History Date:

Wednesday, February 13, 2013

  Actual Average Record
Temperature  
Mean Temperature 28 °F 14 °F  
Max Temperature 38 °F 23 °F 47 °F (1947)
Min Temperature 18 °F 5 °F -29 °F (1899)
Degree Days  
Heating Degree Days 37 51  
Month to date heating degree days 682 681  
Since 1 July heating degree days 5785 6149  
Cooling Degree Days 0 0  
Month to date cooling degree days 0 0  
Year to date cooling degree days 0 0  
Moisture  
Dew Point 21 °F    
Average Humidity 74    
Maximum Humidity 84    
Minimum Humidity 64    
Precipitation  
Precipitation T in 0.03 in 0.67 in (1923)
Month to date precipitation 0.77 0.31  
Year to date precipitation 2.16 1.27  
Snow  
Snow T in 0.40 in 5.60 in (2014)
Month to date snowfall 12.8 5.3  
Since 1 July snowfall 46.5 58.5  
Snow Depth 14.00 in    
Sea Level Pressure  
Sea Level Pressure 29.66 in    
Wind  
Wind Speed 6 mph (NW)    
Max Wind Speed 13 mph    
Max Gust Speed 15 mph    
Visibility 10 miles    
Events Snow    
T = Trace of Precipitation, MM = Missing Value Source: NWS Daily Summary

Daily Weather History Graph

Daily Weather History Graph

Search for Another Location

Airport or City:

Trip Planner

Search our weather history database for the weather conditions in past years. The results will help you decide how hot, cold, wet, or windy it might be!

Date:

Astronomy

Feb. 13, 2013 Rise Set
Actual Time 7:15 AM CST 5:30 PM CST
Civil Twilight 6:44 AM CST 6:02 PM CST
Nautical Twilight 6:08 AM CST 6:37 PM CST
Astronomical Twilight 5:33 AM CST 7:13 PM CST
Moon 8:27 AM CST (2/13) 9:53 PM CST (2/13)
Length of Visible Light 11h 17m
Length of Day
10h 15m
Waxing Crescent, 14% of the Moon is Illuminated
Feb 13
Waxing Crescent
Feb 17
First Quarter
Feb 25
Full
Mar 4
Last Quarter
Mar 11
New

Hourly Weather History & Observations

Time (CST) Temp. Windchill Dew Point Humidity Pressure Visibility Wind Dir Wind Speed Gust Speed Precip Events Conditions
12:55 AM 25.0 °F 14.8 °F 18.0 °F 75% 29.73 in 10.0 mi West 10.4 mph - N/A   Overcast
1:55 AM 25.0 °F 17.1 °F 18.0 °F 75% 29.72 in 10.0 mi West 6.9 mph - N/A   Overcast
2:55 AM 24.1 °F 15.2 °F 18.0 °F 77% 29.71 in 10.0 mi West 8.1 mph - N/A   Overcast
3:55 AM 25.0 °F 17.1 °F 19.0 °F 78% 29.70 in 10.0 mi WNW 6.9 mph - N/A   Overcast
4:55 AM 23.0 °F 15.8 °F 18.0 °F 81% 29.70 in 10.0 mi West 5.8 mph - N/A   Overcast
5:55 AM 21.0 °F 11.4 °F 16.0 °F 81% 29.69 in 10.0 mi West 8.1 mph - N/A   Mostly Cloudy
6:55 AM 19.9 °F 13.4 °F 16.0 °F 85% 29.69 in 10.0 mi WNW 4.6 mph - N/A   Partly Cloudy
7:55 AM 19.0 °F 10.0 °F 15.1 °F 85% 29.69 in 9.0 mi West 6.9 mph - N/A   Partly Cloudy
8:55 AM 25.0 °F 16.3 °F 19.0 °F 78% 29.68 in 10.0 mi WNW 8.1 mph - N/A   Partly Cloudy
9:55 AM 28.0 °F 20.0 °F 21.0 °F 75% 29.66 in 10.0 mi NW 8.1 mph - N/A   Partly Cloudy
10:55 AM 30.0 °F 23.2 °F 21.9 °F 72% 29.67 in 10.0 mi West 6.9 mph - N/A   Partly Cloudy
11:55 AM 34.0 °F 28.8 °F 24.1 °F 67% 29.65 in 10.0 mi West 5.8 mph - N/A   Partly Cloudy
12:55 PM 35.1 °F 27.9 °F 25.0 °F 67% 29.63 in 10.0 mi West 9.2 mph - N/A   Scattered Clouds
1:55 PM 36.0 °F 32.1 °F 25.0 °F 64% 29.62 in 10.0 mi West 4.6 mph - N/A   Scattered Clouds
2:55 PM 36.0 °F 31.1 °F 25.0 °F 64% 29.62 in 10.0 mi WNW 5.8 mph - N/A   Partly Cloudy
3:12 PM 35.6 °F 28.0 °F 24.8 °F 65% 29.56 in 10.0 mi North 10.4 mph - N/A   Mostly Cloudy
3:24 PM 33.8 °F 25.8 °F 24.8 °F 70% 29.57 in 10.0 mi North 10.4 mph - N/A   Scattered Clouds
3:55 PM 33.1 °F 26.1 °F 23.0 °F 66% 29.64 in 10.0 mi North 8.1 mph - N/A   Scattered Clouds
4:19 PM 32.0 °F 24.8 °F 21.2 °F 64% 29.58 in 10.0 mi North 8.1 mph - N/A   Mostly Cloudy
4:38 PM 30.2 °F 23.4 °F 21.2 °F 69% 29.58 in 10.0 mi North 6.9 mph - N/A   Mostly Cloudy
4:55 PM 30.9 °F 24.3 °F 21.9 °F 69% 29.65 in 10.0 mi North 6.9 mph - N/A   Mostly Cloudy
5:55 PM 30.0 °F 24.1 °F 21.9 °F 72% 29.66 in 10.0 mi North 5.8 mph - N/A   Mostly Cloudy
6:37 PM 30.2 °F 24.3 °F 21.2 °F 69% 29.60 in 10.0 mi NNE 5.8 mph - N/A   Mostly Cloudy
6:55 PM 30.0 °F 24.1 °F 21.0 °F 69% 29.67 in 10.0 mi North 5.8 mph - N/A   Mostly Cloudy
7:55 PM 30.0 °F - 21.0 °F 69% 29.68 in 9.0 mi Calm Calm - N/A   Overcast
8:17 PM 28.4 °F 23.3 °F 21.2 °F 74% 29.62 in 3.0 mi ENE 4.6 mph - 0.00 in Snow Light Snow
8:55 PM 28.0 °F 21.7 °F 23.0 °F 81% 29.68 in 5.0 mi ESE 5.8 mph - 0.00 in Snow Light Snow
9:55 PM 28.0 °F 22.8 °F 23.0 °F 81% 29.68 in 10.0 mi ENE 4.6 mph - 0.00 in   Overcast
10:55 PM 27.0 °F - 21.9 °F 81% 29.68 in 10.0 mi Calm Calm - N/A   Mostly Cloudy
11:55 PM 26.1 °F - 21.9 °F 84% 29.68 in 10.0 mi Calm Calm - N/A   Mostly Cloudy